Location: Bronschhofen
(47.4788°N, 9.0353°E)
Time: 00:35:08
(UTC+00:00)

COSMOS 2251 DEB - Visible Passes

Search period start: 03 February 2023 00:00
Search period end: 13 February 2023 00:00
Orbit: 755 x 927 km, 74.0° (Epoch: 02 February)

Date Brightness Start Highest point End Pass type
(mag) Time Alt. Az. Time Alt. Az. Time Alt. Az.
03 Feb ? 18:01:46 10° W 18:05:12 17° NW 18:08:43 10° N visible
04 Feb ? 17:46:27 10° W 17:50:04 18° NW 17:53:47 10° N visible
05 Feb ? 17:31:07 10° W 17:34:55 19° NW 17:38:50 10° N visible
06 Feb ? 17:15:49 10° W 17:19:46 20° NW 17:23:52 10° N visible
07 Feb ? 17:00:31 10° W 17:04:37 21° NW 17:08:52 10° N visible
